User: anonymous   Login
Location: Ergnies
(50.0854°N, 2.0375°E)
Time: 11:29:42
(UTC+00:00)
Language:

Cosmos 1833 Rocket - Orbit

View from above orbital plane
View from above orbital plane
View from above satellite
View from above satellite

Ground track
Ground track

The orbit is defined by the following mean orbital elements,

1 17590U          26064.95130691 +.00000000 +00000-0 -46208-4 0 00002
2 17590  71.0014 284.3735 0003597 151.0368 209.0956 14.17165783    01
Epoch (UTC): 05 March 2026 22:49:52
Eccentricity: 0.0003597
inclination: 71.0014°
perigee height: 832 km
apogee height: 838 km
right ascension of ascending node: 284.3735°
argument of perigee: 151.0368°
revolutions per day: 14.17165783
mean anomaly at epoch: 209.0956°

The dashed part of the orbit path shows where the satellite is in the earth's shadow,  

DLR